Regional Weather Roundup
Issued by NWS Kansas City/Pleasant Hill, MO

Home | Current Version | Previous Version | Graphics & Text | Print | Product List | Glossary Off
Versions: 1 2 3 4 5 6 7 8 9 10 11 12 13 14 15 16 17 18 19 20 21 22 23 24 25 26 27 28

000
ASUS43 KEAX 171610
RWREAX

WEATHER ROUNDUP FOR EASTERN KANSAS AND NORTHWEST MISSOURI
NATIONAL WEATHER SERVICE KANSAS CITY/PLEASANT HILL MO
1000 AM CST SUN DEC 17 2017

KSZ040-057-103>105-MOZ028-029-037-043-171700-
...KANSAS CITY METROPOLITAN AREA...

CITY           SKY/WX    TMP DP  RH WIND       PRES   REMARKS
K.C. INTL      CLOUDY    43  42  97 SW8       30.04R FOG
K.C. DOWNTOWN  CLOUDY    45  42  89 S8        30.04S
LEES SUMMIT    CLOUDY    44  44 100 SW9       30.05R FOG
OLATHE - IXD   CLOUDY    44  43  96 S10       30.04S
OLATHE - OJC   CLOUDY    42  42 100 SW7       30.03F
LAWRENCE       CLOUDY    46  45  96 S8        30.03F

$$

MOZ001>008-011>017-020>025-030>033-038>040-044>046-053-054-171700-
...NORTHERN AND CENTRAL MISSOURI...

CITY           SKY/WX    TMP DP  RH WIND       PRES   REMARKS
ST. JOSEPH     LGT RAIN  43  43 100 SW7       30.04R FOG
MOSBY          CLOUDY    43  43 100 SW8       30.05S FOG
WARRENSBURG    CLOUDY    43  41  93 S6        30.05F FOG
WHITEMAN AFB   CLOUDY    43  42  94 SW9       30.02S
CLINTON        CLOUDY    43  43 100 S6        30.06F
SEDALIA        CLOUDY    45  45 100 S6        30.07F
WARSAW         NOT AVBL
CHILLICOTHE      N/A     44  40  85 S6        30.05R
KIRKSVILLE     LGT RAIN  43  41  93 S3        30.05R

$$

MOZ041-047>049-056>058-063>065-088>090-097-171700-
...EASTERN AND SOUTHERN MISSOURI...

CITY           SKY/WX    TMP DP  RH WIND       PRES   REMARKS
ST. LOUIS INTL CLOUDY    48  34  58 SW3       30.11R
SPIRIT OF STL  CLOUDY    49  33  54 CALM      30.10R
COLUMBIA       CLOUDY    45  43  93 SW7       30.08F
JEFFERSON CITY CLOUDY    46  41  82 CALM      30.10F
ROLLA          CLOUDY    44  38  79 S5        30.10R
OSAGE BEACH    LGT RAIN  44  42  93 S3        30.09S
SPRINGFIELD    CLOUDY    44  43  96 S10       30.08R FOG
BRANSON        FOG       45  45 100 E5        30.10R VSB 1
JOPLIN         CLOUDY    44  44 100 S7        30.08R FOG
WEST PLAINS    LGT RAIN  43  41  93 S6        30.11R FOG

$$

IAZ060-094-KSZ022-034>040-054-083-096-NEZ052-066-093-171700-
...KANSAS...SOUTHEAST NEBRASKA AND IOWA...

CITY           SKY/WX    TMP DP  RH WIND       PRES   REMARKS
TOPEKA         CLOUDY    45  45 100 SW6       30.03S FOG
MANHATTAN      CLOUDY    45  43  93 SW6       30.02R
EMPORIA        CLOUDY    44  41  89 SW7       30.04R
CHANUTE        CLOUDY    45  44  97 W6        30.06S FOG
WICHITA        CLOUDY    46  41  82 W7        30.03S
OMAHA          CLOUDY    31  24  75 NW9       30.05R WCI  23
LINCOLN        LGT SNOW  31  28  89 N3        30.07R FOG
FALLS CITY     CLOUDY    40  39  97 NW3       30.02S
LAMONI         LGT RAIN  42  40  92 CALM      29.99R
DES MOINES     CLOUDY    33  26  75 E6        30.01S WCI  28

$$





USA.gov is the U.S. government's official web portal to all federal, state and local government web resources and services.